Regional Weather Roundup
Issued by NWS Albany, NY

Home | Current Version | Previous Version | Text Only | Print | Product List | Glossary On
Versions: 1 2 3 4 5 6 7 8 9 10 11 12 13 14 15 16 17 18 19 20 21 22 23 24 25 26 27 28 29 30 31 32 33 34 35 36 37 38 39 40 41 42 43 44 45 46 47 48 49 50
000
ASUS41 KALY 271210
RWRALY

NEW YORK STATE HOURLY WEATHER ROUNDUP
NATIONAL WEATHER SERVICE ALBANY NY
700 AM EST THU NOV 27 2014

NOTE: "FAIR" INDICATES FEW OR NO CLOUDS BELOW 12,000 FEET WITH NO
SIGNIFICANT WEATHER AND/OR NO OBSTRUCTIONS TO VISIBILITY.

NYZ032-033-038>043-046>054-057>066-NYZ062>081-271300-
EAST


CITY           SKY/WX    TMP DP  RH WIND       PRES   REMARKS
ALBANY         CLOUDY    31  26  82 N6        29.97R WCI  25
GLENS FALLS    CLOUDY    30  24  78 N3        29.96R
POUGHKEEPSIE   CLOUDY    28  26  92 CALM      29.96R
NEWBURGH       MOCLDY    28  28 100 CALM      29.97R
MONTGOMERY     MIX PCPN  31  30  96 CALM      29.94R FOG
WHITE PLAINS   CLOUDY    33  28  81 NW13      29.92R WCI  24
ISLIP          CLOUDY    35  30  82 NW8       29.93R WCI  29
NEW YORK CITY  CLOUDY    36  30  79 NW7       29.96R WCI  30
CENTRAL PARK   CLOUDY    37  30  75 VRB3      29.98R
$$

NYZ005>009-017-018-044>046-055-056-271300-
CENTRAL


CITY           SKY/WX    TMP DP  RH WIND       PRES   REMARKS
FULTON         LGT SNOW  29  26  89 CALM      30.02R FOG
SYRACUSE       LGT SNOW  28  26  92 NW3       30.02R FOG
ROME           FLURRIES  28  26  92 W8        30.01R WCI  20
ELMIRA         FLURRIES  30  25  81 NW5       29.99R WCI  25
BINGHAMTON     LGT SNOW  32  24  72 NW3       29.93R
MONTICELLO     CLOUDY    28  25  86 W7        29.92R WCI  21
$$

NYZ026>034-041>043-271300-
NORTH


CITY           SKY/WX    TMP DP  RH WIND       PRES   REMARKS
WATERTOWN      CLOUDY    29  19  66 N7        30.03R WCI  22
FORT DRUM      NOT AVBL
MASSENA        CLOUDY    29  20  69 N8        30.03S WCI  21
SARANAC LAKE   CLOUDY    23  52 100 N5        29.90R WCI  17
PLATTSBURGH    NOT AVBL
$$

NYZ001>004-010>016-019>021-271300-
WEST


CITY           SKY/WX    TMP DP  RH WIND       PRES   REMARKS
NIAGARA FALLS  CLOUDY    29  21  72 CALM      30.04S
BUFFALO        CLOUDY    29  21  72 CALM      30.04R
DUNKIRK        CLOUDY    29  24  82 SE6       30.05R WCI  23
JAMESTOWN      CLOUDY    27  21  80 NE3       29.99R
WELLSVILLE     CLOUDY    24  20  84 NW7       29.97R WCI  16
ROCHESTER      LGT SNOW  28  26  92 NW5       30.05R FOG     WCI  23
PENN YAN         N/A     28  24  85 W7        30.01R WCI  21
$$

             KEY
       WCI = WIND CHILL INDEX
       VSB = VISIBILITY
       HX  = HEAT INDEX
$$



USA.gov is the U.S. government's official web portal to all federal, state and local government web resources and services.